GPS IIF-7

operational
NORAD ID: 40105 Int'l Des: 2014-045 Owner: AFSMC Country: US Constellation: GPS
MEOCIRCULARGNSS

About GPS IIF-7

Description loading...

Live Position

Loading 3D Globe...

Upcoming Passes

Altitude History

Altitude vs Time

uPlot chart will show altitude changes over time

Two-Line Element Set

1 40105U 14045A 25297.72248490 .00000023 00000-0 00000+0 0 9999
2 40105 55.1978 97.8543 0033311 118.3911 241.9503 2.00569633 81353
Epoch: Oct 24, 2025 • Age: 31 hours

Current Status

Altitude 20186.2 km
Velocity 3.87 km/s
Sub-Earth Point -22.40°S, 102.4°W
Launch Date Aug 2, 2014
Age 11.2 years
Type navigation

Technical Details

Classification Payload
Mass 1630.00 kg
Dry Mass 1500.00 kg
Total Mass 1630.00 kg
Length 2.50 m
Diameter 1.80 m
Span 18.00 m
Shape Box + 2 Pan
Manufacturer BOES
Bus Type GPS IIF
Phase Status In Orbit
Owner/State AFSMC/US

Large Constellations

Loading constellations...